Das Wetter in  D-61279 Heinzenberg / Taunus





Wetter Minimum- & Maximum-Werte im November 2007

Standort: Heinzenberg / Taunus - Höhe 297 m         8 24' 1" Ost 50 21' 51" Nord
(   3-stündige Aktualisierung    letzte Aktualisierung um 19:04 am 30.11.2007  )


Messgrösse

Minimum

Maximum

Durchschnitt

Temperatur West /
Luftfeuchte West
Anklicken für Monats-Diagramm

-6,7 C

07:06
16.11.2007

68 %

14:35
05.11.2007

12,9 C

13:38
03.11.2007

96 %

09:03
03.11.2007

Temp

3,8 C

Feuchte

89 %

Temperatur Ost /
Luftfeuchte Ost
Anklicken für Monats-Diagramm

-6,7 C

07:42
16.11.2007

--

--
--

12,5 C

12:43
03.11.2007

--

--
--

3,8 C

--

Luftdruck Anklicken für Monats-Diagramm

1001,3 hPa

23:47
13.11.2007

1034,8 hPa

08:57
01.11.2007

1019,6 hPa

Taupunkt

-7,9 C

07:06
16.11.2007

12,3 C

13:38
03.11.2007

2,2 C

Windchill
( gefühlte Temperatur )

-13,2 C

08:19
09.11.2007

12,6 C

11:58
03.11.2007

0,5 C

Windgeschwindigkeit /
Windrichtung
Anklicken für Monats-Diagramm

---

53,6 km/h / W

11:26
11.11.2007

9,0 km/h
W

Helligkeit /
Sonnenschein
Anklicken für Monats-Diagramm
Anklicken für Monats-Diagramm

Sonnenschein:

27:50 Stunden

Max: 5:46 Std am
24.11.2007

67,0 klux

12:34
09.11.2007

8,8 klux

Solarstrahlung Anklicken für Monats-Diagramm

---

458 W/m

12:34
09.11.2007

67 W/m

Regenmenge
    November 2007
Anklicken für Monats-Diagramm

Insgesamt 81,5 l/m

in 108:02 Stunden
an 22 Tagen

17,3 l/m

07:59
23.11.2007

Gesamtmenge

81,5 l/m

Regen-Tage
    November 2007
Anklicken für Monats-Diagramm

>   0 mm/Tag

>   2 mm/Tag

>   5 mm/Tag

> 10 mm/Tag

> 20 mm/Tag

22 Tage     
10 Tage     
6 Tage     
3 Tage     
0 Tage     

Eisige Tage November 2007 / 2006

Tmin ≤ -10C     

0 Tage

/

0 Tage

Eistage November 2007 / 2006

Tmax <     0C     

0 Tage

/

0 Tage

Frosttage November 2007 / 2006

Tmin ≤     0C     

8 Tage

/

3 Tage

Kalte Tage November 2007 / 2006

Tmax <   10C     

25 Tage

/

12 Tage

Warme Tage November 2007 / 2006

Tmax ≥   20C     

0 Tage

/

0 Tage

Sommertage November 2007 / 2006

Tmax ≥   25C     

0 Tage

/

0 Tage

Heisse Tage November 2007 / 2006

Tmax ≥   30C     

0 Tage

/

0 Tage


Monatsdiagramm November 2007

Die Kurven zeigen den Durchschnittswert des jeweiligen Tages an


Wetter-Monatsübersicht November 2007
Datum
  Temperatur
   Luftdruck
   Wind
  Regen
   Luftfeuchte
   Helligkeit

Sonnen-
schein


Temp.

Min.
Temp.

Max.
Temp.


Luftdruck

Min.
Luftdruck

Max.
Luftdruck

-Geschw.
Haupt-Richtg.

Max.
Wind

Menge /
Dauer


Feuchte

Min.
Feuchte

Max.
Feuchte


Helligkeit

Max.
Helligkeit

1.
November
4,8 C-1,2 C
07:52
11,7 C
13:32
1033,1 hPa1031,2 hPa
13:52
1034,8 hPa
08:57
0,7 km/h
NW
11,0 km/h
15:17  
---
87 %76 %
14:57
94 %
11:02
22,64 klux59,70 klux
13:02
4:35 Std 
2.
November
9,3 C7,5 C
02:02
10,8 C
14:52
1032,3 hPa1031,3 hPa
15:12
1033,7 hPa
00:02
0,7 km/h
W-NW
8,8 km/h
11:27  
1,5 l/m
3:24 Stunden
93 %88 %
00:02
95 %
22:07
5,4 klux12,3 klux
10:57
--- 
3.
November
10,7 C9,9 C
01:43
12,9 C
13:38
1027,9 hPa1025,1 hPa
23:14
1031,4 hPa
00:03
3,6 km/h
W-NW
17,0 km/h
14:38  
0,6 l/m
2:15 Stunden
95 %92 %
17:23
96 %
09:03
6,8 klux35,1 klux
11:33
5 Min 
4.
November
8,5 C6,6 C
23:35
10,8 C
13:24
1027,3 hPa1025,1 hPa
00:04
1029,7 hPa
23:35
1,9 km/h
NW
16,5 km/h
13:39  
---
84 %72 %
15:24
94 %
00:04
8,8 klux34,3 klux
13:14
5 Min 
5.
November
6,5 C3,5 C
19:50
9,1 C
13:25
1027,7 hPa1021,4 hPa
23:36
1029,9 hPa
07:00
3,0 km/h
W-SW
18,1 km/h
22:51  
---
15 Minuten
80 %68 %
14:35
89 %
07:00
8,3 klux17,5 klux
13:05
--- 
6.
November
5,7 C3,9 C
21:21
8,2 C
12:56
1024,6 hPa1020,4 hPa
00:46
1029,0 hPa
21:21
17,4 km/h
W-NW
38,6 km/h
12:01  
5,9 l/m
5:25 Stunden
89 %75 %
00:01
94 %
08:16
12,8 klux56,4 klux
11:11
2:25 Std 
7.
November
6,5 C4,7 C
01:02
7,8 C
21:32
1021,8 hPa1018,2 hPa
20:52
1028,9 hPa
01:02
23,7 km/h
W
43,0 km/h
12:42  
4,1 l/m
6:20 Stunden
88 %80 %
08:42
95 %
20:42
3,1 klux11,9 klux
11:32
--- 
8.
November
8,2 C6,5 C
06:48
10,6 C
12:58
1015,7 hPa1004,6 hPa
23:39
1020,4 hPa
07:33
17,4 km/h
W
36,3 km/h
23:44  
2,6 l/m
3:25 Stunden
90 %80 %
13:03
95 %
00:03
9,7 klux49,2 klux
11:28
55 Min 
9.
November
3,3 C1,2 C
07:29
8,1 C
00:04
1013,1 hPa1004,7 hPa
00:04
1019,9 hPa
21:14
25,6 km/h
W
46,3 km/h
04:59  
9,1 l/m
11:25 Stunden
92 %86 %
12:49
94 %
02:34
12,9 klux67,0 klux
12:34
1:35 Std 
10.
November
4,6 C2,8 C
07:45
7,2 C
13:35
1014,0 hPa1010,0 hPa
13:35
1018,8 hPa
00:00
20,4 km/h
W
42,5 km/h
06:40  
10,3 l/m
12:37 Stunden
91 %82 %
16:20
96 %
12:30
4,2 klux15,9 klux
13:30
20 Min 
11.
November
5,7 C1,4 C
23:52
8,3 C
11:01
1008,2 hPa1003,6 hPa
11:01
1013,8 hPa
23:52
19,9 km/h
W
53,6 km/h
11:26  
12,5 l/m
12:01 Stunden
93 %90 %
11:26
96 %
03:26
4,1 klux28,1 klux
12:41
5 Min 
12.
November
3,7 C1,5 C
00:02
7,3 C
14:12
1017,2 hPa1013,8 hPa
00:02
1018,8 hPa
23:27
22,4 km/h
W-NW
43,9 km/h
14:27  
0,2 l/m
1:05 Stunden
86 %70 %
14:12
94 %
00:02
14,5 klux48,6 klux
11:02
2:13 Std 
13.
November
2,8 C0,7 C
18:46
4,1 C
13:52
1012,2 hPa1001,3 hPa
23:47
1018,8 hPa
00:02
15,3 km/h
W
35,9 km/h
14:52  
9,6 l/m
8:24 Stunden
88 %79 %
13:47
94 %
19:57
5,0 klux14,3 klux
12:42
--- 
14.
November
0,6 C-1,6 C
21:26
3,9 C
13:01
1010,2 hPa1001,3 hPa
00:02
1018,3 hPa
22:02
3,8 km/h
N-NW
19,5 km/h
12:02  
3,3 l/m
2:54 Stunden
91 %80 %
16:06
95 %
03:41
10,1 klux51,6 klux
12:57
1:08 Std 
15.
November
-0,7 C-3,8 C
23:32
2,3 C
12:56
1023,8 hPa1018,3 hPa
00:47
1028,0 hPa
23:32
0,7 km/h
N-NO
11,8 km/h
13:51  
---
87 %77 %
13:51
92 %
04:56
7,2 klux49,3 klux
10:47
44 Min 
16.
November
-2,1 C-6,7 C
07:06
1,5 C
13:47
1029,5 hPa1028,0 hPa
00:02
1030,5 hPa
07:06
0,3 km/h
NW
6,3 km/h
13:47  
---
89 %84 %
14:36
92 %
08:52
11,1 klux48,0 klux
10:56
1:14 Std 
17.
November
1,9 C0,3 C
00:02
4,4 C
14:22
1027,1 hPa1024,2 hPa
22:26
1029,5 hPa
00:02
0,0 km/h
NW
3,0 km/h
14:51  
---
89 %86 %
13:26
92 %
23:02
6,6 klux14,6 klux
12:56
--- 
18.
November
2,3 C0,5 C
06:32
3,9 C
13:47
1016,4 hPa1009,5 hPa
23:47
1024,2 hPa
00:02
5,9 km/h
O-SO
22,6 km/h
20:12  
---
89 %83 %
20:12
94 %
08:51
4,1 klux12,3 klux
13:26
--- 
19.
November
2,2 C1,5 C
07:57
3,0 C
13:36
1012,1 hPa1008,5 hPa
01:57
1015,8 hPa
23:26
9,6 km/h
O-SO
31,0 km/h
04:06  
---
25 Minuten
83 %79 %
13:16
88 %
23:21
4,8 klux13,8 klux
11:21
--- 
20.
November
2,6 C0,5 C
07:42
5,4 C
13:42
1014,2 hPa1012,6 hPa
22:33
1016,0 hPa
08:47
4,3 km/h
O-SO
26,6 km/h
15:07  
---
86 %79 %
13:57
93 %
09:12
7,4 klux22,0 klux
10:52
--- 
21.
November
3,9 C2,5 C
20:58
6,1 C
14:58
1011,1 hPa1009,4 hPa
04:32
1012,6 hPa
20:58
2,7 km/h
O-SO
20,8 km/h
08:38  
0,3 l/m
2:15 Stunden
86 %79 %
04:43
93 %
23:23
6,8 klux44,8 klux
12:33
20 Min 
22.
November
6,0 C3,8 C
00:03
9,4 C
13:33
1009,6 hPa1007,6 hPa
13:33
1012,5 hPa
00:03
0,8 km/h
O-SO
10,8 km/h
08:33  
---
92 %87 %
13:53
94 %
23:29
7,1 klux24,6 klux
13:13
5 Min 
23.
November
5,7 C2,6 C
23:55
7,2 C
14:09
1014,1 hPa1010,1 hPa
07:49
1023,0 hPa
23:55
1,3 km/h
NW
18,8 km/h
19:09  
17,3 l/m
9:20 Stunden
95 %94 %
00:04
96 %
16:29
3,1 klux8,0 klux
11:49
--- 
24.
November
0,9 C-1,5 C
04:55
6,8 C
13:45
1025,3 hPa1021,2 hPa
23:51
1027,6 hPa
07:10
2,6 km/h
SO
20,9 km/h
22:56  
---
15 Minuten
91 %77 %
15:15
96 %
10:55
22,07 klux44,10 klux
13:25
5:46 Std 
25.
November
3,1 C0,5 C
00:01
7,2 C
13:41
1018,6 hPa1017,2 hPa
13:41
1021,2 hPa
00:01
20,2 km/h
W
38,0 km/h
22:01  
2,7 l/m
11:11 Stunden
92 %82 %
01:56
94 %
05:41
10,5 klux53,6 klux
12:46
1:30 Std 
26.
November
1,8 C0,5 C
07:22
3,7 C
14:52
1024,4 hPa1021,0 hPa
00:02
1027,2 hPa
23:38
16,2 km/h
W
30,8 km/h
13:02  
0,5 l/m
5:25 Stunden
93 %89 %
15:02
94 %
00:02
9,9 klux46,0 klux
13:32
1:20 Std 
27.
November
2,5 C-1,1 C
23:54
4,8 C
13:03
1028,6 hPa1027,2 hPa
00:03
1029,7 hPa
23:54
6,9 km/h
W
21,0 km/h
00:13  
---
55 Minuten
89 %81 %
13:28
93 %
05:03
9,7 klux30,7 klux
09:38
1:10 Std 
28.
November
-1,1 C-3,1 C
07:09
1,8 C
12:44
1024,4 hPa1018,2 hPa
21:59
1029,7 hPa
00:09
0,2 km/h
W-NW
4,3 km/h
06:09  
---
25 Minuten
93 %92 %
00:04
94 %
10:54
13,0 klux47,1 klux
12:19
2:00 Std 
29.
November
-0,1 C-3,6 C
07:35
2,7 C
23:51
1012,9 hPa1009,5 hPa
23:51
1018,4 hPa
00:00
7,8 km/h
W-SW
31,2 km/h
14:35  
0,6 l/m
6:36 Stunden
94 %92 %
14:25
95 %
08:50
7,0 klux31,8 klux
09:55
15 Min 
30.
November
4,5 C2,3 C
06:56
6,4 C
22:01
1011,5 hPa1009,4 hPa
01:31
1013,5 hPa
09:36
13,4 km/h
W-SW
27,0 km/h
23:52  
0,3 l/m
1:45 Stunden
92 %87 %
13:51
96 %
01:31
5,9 klux21,6 klux
13:06
--- 



November
2007

Temperatur

  

Luftdruck

  

Wind

  

Regen

  

Luftfeuchte

  

Helligkeit

Sonnen-
schein

Min

Max

Min

Max

Max

Max

Min

Max

Max

Max

3,8 C

-6,7 C

07:06 Uhr
16.11.2007

12,9 C

13:38 Uhr
03.11.2007

1019,6 hPa

1001,3 hPa

23:47 Uhr
13.11.2007

1034,8 hPa

08:57 Uhr
01.11.2007

9,0 km/h

W

53,6 km/h

11:26 Uhr
11.11.2007

17,3 l/m

9:20 Stunden
23.11.2007

89 %

68 %

14:35 Uhr
05.11.2007

96 %

09:03 Uhr
03.11.2007

8,8 klux

67,00 klux

12:34 Uhr
09.11.2007

5:46 Std

am
24.11.2007

Gesamt

Gesamt

81,5 l/m

22 Tage
108:02 h

27:50 Std


Wetter-Diagramme November 2007     Heinzenberg / Taunus   
TemperaturLuftfeuchte
SolarstrahlungLuftdruck
HelligkeitSonnenschein
RegenmengeRegendauer
Wind-GeschwindigkeitWind-Richtung